Weather History for Chippewa, MI

Change the Weather History Date:

Tuesday, April 23, 2013

  Actual Average Record
Temperature  
Mean Temperature 40 °F -  
Max Temperature 48 °F 54 °F 73 °F (2001)
Min Temperature 32 °F 29 °F 19 °F (1989)
Degree Days  
Heating Degree Days 25    
Moisture  
Dew Point 35 °F    
Average Humidity 92    
Maximum Humidity 100    
Minimum Humidity 76    
Precipitation  
Precipitation 0.25 in - - ()
Sea Level Pressure  
Sea Level Pressure 29.93 in    
Wind  
Wind Speed 11 mph (SE)    
Max Wind Speed 16 mph    
Max Gust Speed 21 mph    
Visibility 9 miles    
Events      
Averages and records for this station are not official NWS values.
T = Trace of Precipitation, MM = Missing Value Source: NWS Daily Summary

Daily Weather History Graph

Daily Weather History Graph

Search for Another Location

Airport:

Trip Planner

Search our weather history database for the weather conditions in past years. The results will help you decide how hot, cold, wet, or windy it might be!

Date:

Astronomy

Apr. 23, 2013 Rise Set
Actual Time 6:36 AM EDT 8:36 PM EDT
Civil Twilight 6:04 AM EDT 9:08 PM EDT
Nautical Twilight 5:24 AM EDT 9:48 PM EDT
Astronomical Twilight 4:41 AM EDT 10:32 PM EDT
Moon 6:24 PM EDT (4/23) 5:12 AM EDT (4/23)
Length of Visible Light 15h 04m
Length of Day
13h 59m
Waxing Gibbous, 94% of the Moon is Illuminated
Apr 23
Waxing Gibbous
Apr 25
Full
May 2
Last Quarter
May 9
New
May 18
First Quarter

Hourly Weather History & Observations

Time (EDT) Temp. Windchill Dew Point Humidity Pressure Visibility Wind Dir Wind Speed Gust Speed Precip Events Conditions
12:15 AM 39.2 °F 32.5 °F 33.8 °F 81% 30.13 in 10.0 mi ESE 10.4 mph - N/A   Overcast
12:35 AM 39.2 °F 32.0 °F 33.8 °F 81% 30.13 in 10.0 mi ESE 11.5 mph - N/A   Overcast
12:55 AM 39.2 °F 32.5 °F 33.8 °F 81% 30.12 in 10.0 mi ESE 10.4 mph - N/A   Overcast
1:15 AM 37.4 °F 30.3 °F 33.8 °F 87% 30.12 in 10.0 mi ESE 10.4 mph - N/A   Overcast
1:35 AM 37.4 °F 30.3 °F 33.8 °F 87% 30.11 in 10.0 mi ESE 10.4 mph - N/A   Overcast
1:55 AM 37.4 °F 30.3 °F 33.8 °F 87% 30.11 in 10.0 mi ESE 10.4 mph - N/A   Overcast
2:15 AM 37.4 °F 30.3 °F 33.8 °F 87% 30.10 in 10.0 mi ESE 10.4 mph - N/A   Overcast
2:35 AM 37.4 °F 29.8 °F 33.8 °F 87% 30.09 in 10.0 mi ESE 11.5 mph - N/A   Overcast
2:55 AM 37.4 °F 30.3 °F 33.8 °F 87% 30.08 in 10.0 mi ESE 10.4 mph - N/A   Overcast
3:15 AM 37.4 °F 30.3 °F 33.8 °F 87% 30.08 in 10.0 mi ESE 10.4 mph - N/A   Scattered Clouds
3:35 AM 37.4 °F 30.3 °F 33.8 °F 87% 30.07 in 10.0 mi ESE 10.4 mph - N/A   Clear
3:55 AM 37.4 °F 30.3 °F 33.8 °F 87% 30.06 in 10.0 mi ESE 10.4 mph - N/A   Clear
4:15 AM 35.6 °F 28.0 °F 33.8 °F 93% 30.05 in 10.0 mi ESE 10.4 mph - N/A   Clear
4:35 AM 35.6 °F 28.0 °F 33.8 °F 93% 30.04 in 10.0 mi ESE 10.4 mph - N/A   Clear
4:55 AM 35.6 °F 28.0 °F 33.8 °F 93% 30.03 in 10.0 mi ESE 10.4 mph - N/A   Clear
5:15 AM 35.6 °F 27.5 °F 33.8 °F 93% 30.01 in 10.0 mi ESE 11.5 mph - N/A   Clear
5:35 AM 35.6 °F 27.5 °F 33.8 °F 93% 30.00 in 10.0 mi ESE 11.5 mph - N/A   Clear
5:55 AM 35.6 °F 27.1 °F 33.8 °F 93% 29.99 in 10.0 mi ESE 12.7 mph - N/A   Clear
6:15 AM 35.6 °F 27.5 °F 33.8 °F 93% 29.98 in 10.0 mi ESE 11.5 mph - N/A   Clear
6:35 AM 35.6 °F 27.5 °F 33.8 °F 93% 29.97 in 10.0 mi ESE 11.5 mph - N/A   Clear
6:55 AM 35.6 °F 28.6 °F 33.8 °F 93% 29.96 in 10.0 mi ESE 9.2 mph - N/A   Clear
7:15 AM 35.6 °F 28.6 °F 33.8 °F 93% 29.95 in 10.0 mi ESE 9.2 mph - N/A   Clear
7:35 AM 35.6 °F 29.2 °F 33.8 °F 93% 29.95 in 10.0 mi ESE 8.1 mph - N/A   Clear
7:55 AM 37.4 °F 31.4 °F 33.8 °F 87% 29.94 in 10.0 mi ESE 8.1 mph - N/A   Clear
8:15 AM 37.4 °F 29.8 °F 33.8 °F 87% 29.93 in 10.0 mi ESE 11.5 mph - N/A   Partly Cloudy
8:35 AM 37.4 °F 30.3 °F 33.8 °F 87% 29.92 in 10.0 mi ESE 10.4 mph - N/A   Scattered Clouds
8:55 AM 37.4 °F 29.3 °F 33.8 °F 87% 29.91 in 10.0 mi ESE 12.7 mph - N/A   Scattered Clouds
9:15 AM 39.2 °F 32.5 °F 33.8 °F 81% 29.92 in 10.0 mi ESE 10.4 mph - N/A   Mostly Cloudy
9:35 AM 39.2 °F 32.5 °F 35.6 °F 87% 29.92 in 10.0 mi ESE 10.4 mph - N/A   Overcast
9:55 AM 41.0 °F 33.9 °F 35.6 °F 81% 29.91 in 10.0 mi ESE 12.7 mph - N/A   Scattered Clouds
10:15 AM 42.8 °F 36.2 °F 35.6 °F 76% 29.90 in 10.0 mi ESE 12.7 mph - N/A   Scattered Clouds
10:35 AM 41.0 °F 34.3 °F 35.6 °F 81% 29.91 in 10.0 mi SE 11.5 mph - N/A   Overcast
10:55 AM 39.2 °F 31.6 °F 37.4 °F 93% 29.90 in 9.0 mi ESE 12.7 mph - N/A   Overcast
11:15 AM 39.2 °F 32.5 °F 37.4 °F 93% 29.88 in 10.0 mi ESE 10.4 mph - 0.01 in   Overcast
11:35 AM 39.2 °F 32.5 °F 39.2 °F 100% 29.89 in 8.0 mi ESE 10.4 mph - 0.04 in   Overcast
11:55 AM 39.2 °F 34.2 °F 39.2 °F 100% 29.88 in 9.0 mi SE 6.9 mph - N/A   Overcast
12:15 PM 39.2 °F 35.0 °F 37.4 °F 93% 29.87 in 7.0 mi SE 5.8 mph - N/A   Overcast
12:35 PM 39.2 °F 33.6 °F 37.4 °F 93% 29.86 in 8.0 mi ESE 8.1 mph - N/A   Overcast
12:55 PM 39.2 °F 32.5 °F 39.2 °F 100% 29.85 in 10.0 mi ESE 10.4 mph - N/A   Overcast
1:15 PM 41.0 °F 35.2 °F 39.2 °F 93% 29.85 in 10.0 mi SE 9.2 mph - N/A   Overcast
1:35 PM 42.8 °F 37.0 °F 39.2 °F 87% 29.84 in 10.0 mi SSE 10.4 mph - N/A   Overcast
1:55 PM 42.8 °F 38.0 °F 41.0 °F 93% 29.84 in 10.0 mi SSE 8.1 mph - N/A   Overcast
2:15 PM 44.6 °F 41.4 °F 42.8 °F 93% 29.84 in 10.0 mi South 5.8 mph - N/A   Overcast
2:35 PM 48.2 °F - 44.6 °F 87% 29.83 in 10.0 mi South 6.9 mph - N/A   Overcast
2:55 PM 46.4 °F 41.9 °F 44.6 °F 93% 29.84 in 10.0 mi WSW 9.2 mph - N/A   Overcast
3:15 PM 44.6 °F 41.4 °F 42.8 °F 93% 29.83 in 9.0 mi WSW 5.8 mph - N/A   Overcast
3:35 PM 42.8 °F 38.0 °F 42.8 °F 100% 29.84 in 5.0 mi WSW 8.1 mph - 0.01 in   Overcast
3:55 PM 41.0 °F 35.8 °F 39.2 °F 93% 29.84 in 3.0 mi West 8.1 mph - 0.03 in   Overcast
4:15 PM 41.0 °F 34.7 °F 41.0 °F 100% 29.84 in 3.0 mi West 10.4 mph - 0.03 in   Overcast
4:35 PM 39.2 °F 32.5 °F 39.2 °F 100% 29.85 in 4.0 mi West 10.4 mph - 0.06 in   Overcast
4:55 PM 37.4 °F 29.3 °F 35.6 °F 93% 29.85 in 8.0 mi NW 12.7 mph - 0.10 in   Overcast
5:15 PM 37.4 °F 30.8 °F 37.4 °F 100% 29.85 in 10.0 mi NW 9.2 mph - 0.02 in   Overcast
5:35 PM 37.4 °F 30.8 °F 37.4 °F 100% 29.86 in 10.0 mi NW 9.2 mph - 0.04 in   Overcast
5:55 PM 35.6 °F 27.1 °F 35.6 °F 100% 29.87 in 10.0 mi NW 12.7 mph - 0.06 in   Overcast
6:15 PM 35.6 °F 26.2 °F 35.6 °F 100% 29.86 in 9.0 mi NW 15.0 mph 19.6 mph 0.01 in   Overcast
6:35 PM 33.8 °F 24.3 °F 33.8 °F 100% 29.87 in 4.0 mi NW 13.8 mph 19.6 mph 0.01 in   Overcast
6:55 PM 33.8 °F 25.8 °F 32.0 °F 93% 29.87 in 3.0 mi NW 10.4 mph - 0.02 in   Overcast
7:15 PM 33.8 °F 25.8 °F 33.8 °F 100% 29.87 in 2.5 mi NW 10.4 mph - N/A   Overcast
7:35 PM 33.8 °F 26.4 °F 33.8 °F 100% 29.87 in 2.5 mi WNW 9.2 mph - N/A   Overcast
7:55 PM 33.8 °F 25.8 °F 33.8 °F 100% 29.88 in 2.0 mi WNW 10.4 mph - N/A   Overcast
8:15 PM 33.8 °F 24.3 °F 33.8 °F 100% 29.88 in 4.0 mi WNW 13.8 mph 17.3 mph N/A   Overcast
8:35 PM 33.8 °F 25.8 °F 33.8 °F 100% 29.88 in 3.0 mi WNW 10.4 mph 16.1 mph N/A   Overcast
8:55 PM 33.8 °F 26.4 °F 32.0 °F 93% 29.87 in 7.0 mi WNW 9.2 mph - N/A   Overcast
9:15 PM 32.0 °F 22.5 °F 32.0 °F 100% 29.87 in 10.0 mi WNW 12.7 mph - N/A   Overcast
9:35 PM 32.0 °F 23.0 °F 32.0 °F 100% 29.87 in 10.0 mi WNW 11.5 mph - N/A   Overcast
9:55 PM 32.0 °F 22.5 °F 32.0 °F 100% 29.88 in 10.0 mi WNW 12.7 mph - N/A   Overcast
10:15 PM 32.0 °F 23.0 °F 32.0 °F 100% 29.87 in 10.0 mi WNW 11.5 mph - N/A   Overcast
10:35 PM 32.0 °F 22.5 °F 32.0 °F 100% 29.86 in 10.0 mi WNW 12.7 mph - N/A   Overcast
10:55 PM 32.0 °F 22.1 °F 30.2 °F 93% 29.87 in 10.0 mi WNW 13.8 mph - N/A   Overcast
11:15 PM 32.0 °F 22.5 °F 30.2 °F 93% 29.87 in 10.0 mi WNW 12.7 mph 17.3 mph N/A   Overcast
11:35 PM 32.0 °F 21.2 °F 30.2 °F 93% 29.86 in 10.0 mi WNW 16.1 mph - N/A   Overcast
11:55 PM 32.0 °F 21.2 °F 30.2 °F 93% 29.86 in 10.0 mi WNW 16.1 mph 20.7 mph N/A   Overcast